This is the latest recevied weather packets stored in our database for station/object KN6WGU. If no packets are shown the sender has not sent any weather packets the latest 10 day(s).
| Time | Temp. | Humidity | Pressure | Rain* | Wind** | Luminosity | Snow |
|---|---|---|---|---|---|---|---|
| 1777393243 | 20° C | 75% | 1004.3 hPa | 0 mm | - | 155 W/m² | - |
| 1777392941 | 19.44° C | 77% | 1004.1 hPa | 0 mm | - | 87 W/m² | - |
| 1777392635 | 19.44° C | 77% | 1004.4 hPa | 0 mm | - | 127 W/m² | - |
| 1777392332 | 19.44° C | 79% | 1004.4 hPa | 0 mm | - | 107 W/m² | - |
| 1777392032 | 18.89° C | 79% | 1004.3 hPa | 0 mm | - | 156 W/m² | - |
| 1777391727 | 18.89° C | 78% | 1004.5 hPa | 0 mm | - | 158 W/m² | - |
| 1777391424 | 18.89° C | 80% | 1004.5 hPa | 0 mm | - | 200 W/m² | - |
| 1777391121 | 18.33° C | 82% | 1004.6 hPa | 0 mm | - | 262 W/m² | - |
| 1777390817 | 18.33° C | 81% | 1004.5 hPa | 0 mm | - | 95 W/m² | - |
| 1777390514 | 18.33° C | 81% | 1004.5 hPa | 0 mm | - | 150 W/m² | - |
| 1777390210 | 17.78° C | 82% | 1004.3 hPa | 0 mm | - | 131 W/m² | - |
| 1777389906 | 17.78° C | 82% | 1004.4 hPa | 0 mm | - | 165 W/m² | - |
| 1777389603 | 18.33° C | 81% | 1004.4 hPa | 0 mm | - | 166 W/m² | - |
| 1777389299 | 17.78° C | 81% | 1004.4 hPa | 0 mm | - | 182 W/m² | - |
| 1777388997 | 17.78° C | 83% | 1004.3 hPa | 0 mm | - | 104 W/m² | - |
| 1777388694 | 17.78° C | 82% | 1004.3 hPa | 0 mm | - | 194 W/m² | - |
| 1777388391 | 17.78° C | 82% | 1004.3 hPa | 0 mm | - | 187 W/m² | - |
| 1777388090 | 17.78° C | 81% | 1004.4 hPa | 0 mm | - | 192 W/m² | - |
| 1777387787 | 17.78° C | 81% | 1004.3 hPa | 0 mm | - | 260 W/m² | - |
| 1777387484 | 17.22° C | 82% | 1004.3 hPa | 0 mm | - | 179 W/m² | - |
| 1777387179 | 17.22° C | 82% | 1004.1 hPa | 0 mm | - | 178 W/m² | - |
| 1777386874 | 17.22° C | 82% | 1004.2 hPa | 0 mm | - | 175 W/m² | - |
| 1777386572 | 17.22° C | 81% | 1004.2 hPa | 0 mm | - | 85 W/m² | - |
| 1777386269 | 17.22° C | 80% | 1004.2 hPa | 0 mm | - | 177 W/m² | - |
| 1777385966 | 17.22° C | 80% | 1004.2 hPa | 0 mm | - | 201 W/m² | - |
* Rain latest hour (hover to see other rain measurements)
** Current wind speed in m/s (hover to see current wind gust speed)